Glasgow, KY

6:32 PM CDT on September 17, 2019 (GMT -0500)
Glasgow Municipal

Weather History for KGLW - August, 2019

Change the Weather History Date:

Thursday, August 22, 2019

  Actual Average Record
Temperature  
Mean Temperature 78 °F -  
Max Temperature 85 °F 85 °F 99 °F (1983)
Min Temperature 69 °F 63 °F 47 °F (1956)
Cooling Degree Days 12    
Growing Degree Days 28 (Base 50)    
Moisture  
Dew Point 69 °F    
Average Humidity 77    
Maximum Humidity 92    
Minimum Humidity 56    
Precipitation  
Precipitation 0.02 in - - ()
Sea Level Pressure  
Sea Level Pressure 30.00 in    
Wind  
Wind Speed 2 mph ()    
Max Wind Speed 8 mph    
Max Gust Speed -    
Visibility 10.0 miles    
Events Rain , Thunderstorm    
Averages and records for this station are not official NWS values.
T = Trace of Precipitation, MM = Missing Value Source: Averaged Metar Reports

Daily Weather History Graph

Daily Weather History Graph

Search for Another Location

Airport or City:

Astronomy

Aug. 22, 2019 Rise Set
Actual Time 6:06 AM CDT 7:26 PM CDT
Civil Twilight 5:39 AM CDT 7:53 PM CDT
Nautical Twilight 5:06 AM CDT 8:26 PM CDT
Astronomical Twilight 4:32 AM CDT 9:00 PM CDT
Moon 11:26 PM CDT (8/22) 12:31 PM CDT (8/22)
Length of Visible Light 14h 14m
Length of Day
13h 20m
Waning Gibbous, 59% of the Moon is Illuminated
Aug 22
Waning Gibbous
Aug 23
Last Quarter
Aug 30
New
Sep 5
First Quarter
Sep 13
Full

Hourly Weather History & Observations

Time (CDT) Temp. Heat Index Dew Point Humidity Pressure Visibility Wind Dir Wind Speed Gust Speed Precip Events Conditions
12:15 AM 77.0 °F - 69.6 °F 78% 29.99 in 10.0 mi Calm Calm - N/A   Overcast
12:35 AM 77.7 °F - 69.8 °F 76% 29.99 in 10.0 mi Calm Calm - N/A   Overcast
12:55 AM 75.7 °F - 69.8 °F 82% 29.98 in 10.0 mi Calm Calm - N/A   Scattered Clouds
1:15 AM 74.8 °F - 69.8 °F 84% 29.98 in 10.0 mi Calm Calm - N/A   Clear
1:35 AM 75.4 °F - 70.0 °F 83% 29.98 in 10.0 mi Calm Calm - N/A   Clear
1:55 AM 75.6 °F - 70.0 °F 83% 29.98 in 10.0 mi SW 3.5 mph - N/A   Clear
2:15 AM 74.3 °F - 69.8 °F 86% 29.98 in 10.0 mi Calm Calm - N/A   Clear
2:35 AM 75.2 °F - 70.3 °F 85% 29.98 in 10.0 mi Calm Calm - N/A   Clear
2:55 AM 74.3 °F - 70.0 °F 86% 29.99 in 10.0 mi Calm Calm - N/A   Clear
3:15 AM 74.7 °F - 70.3 °F 86% 30.00 in 10.0 mi Calm Calm - N/A   Mostly Cloudy
3:35 AM 75.2 °F - 70.3 °F 85% 30.01 in 10.0 mi WSW 3.5 mph - N/A   Overcast
3:55 AM 75.6 °F - 70.7 °F 85% 30.01 in 10.0 mi Calm Calm - N/A   Mostly Cloudy
4:15 AM 75.2 °F - 70.3 °F 85% 30.01 in 10.0 mi NNW 3.5 mph - N/A   Scattered Clouds
4:35 AM 74.3 °F - 70.0 °F 86% 30.01 in 10.0 mi Calm Calm - N/A   Clear
4:55 AM 73.6 °F - 69.1 °F 86% 30.02 in 10.0 mi Calm Calm - N/A   Scattered Clouds
5:15 AM 73.4 °F - 69.1 °F 86% 30.02 in 10.0 mi Calm Calm - N/A   Mostly Cloudy
5:35 AM 72.5 °F - 68.9 °F 88% 30.02 in 10.0 mi Calm Calm - N/A   Scattered Clouds
5:55 AM 71.6 °F - 67.8 °F 88% 30.02 in 10.0 mi Calm Calm - N/A   Clear
6:15 AM 70.9 °F - 66.4 °F 86% 30.03 in 10.0 mi NE 4.6 mph - N/A Thunderstorm Clear
6:35 AM 70.7 °F - 65.8 °F 85% 30.04 in 10.0 mi Calm Calm - N/A Thunderstorm Clear
6:55 AM 71.6 °F - 67.1 °F 86% 30.06 in 10.0 mi Calm Calm - N/A   Mostly Cloudy
7:15 AM 70.9 °F - 67.3 °F 88% 30.06 in 7.0 mi Calm Calm - 0.01 in Rain , Thunderstorm Light Thunderstorms and Rain
7:35 AM 70.7 °F - 68.0 °F 91% 30.06 in 10.0 mi Calm Calm - 0.01 in Rain , Thunderstorm Light Thunderstorms and Rain
7:55 AM 71.2 °F - 68.7 °F 92% 30.06 in 10.0 mi Calm Calm - 0.02 in Rain Light Rain
8:15 AM 73.4 °F - 69.1 °F 86% 30.05 in 10.0 mi Calm Calm - N/A   Clear
8:35 AM 75.7 °F - 69.3 °F 80% 30.04 in 10.0 mi Calm Calm - N/A   Scattered Clouds
8:55 AM 78.1 °F - 70.5 °F 77% 30.05 in 10.0 mi Calm Calm - N/A   Clear
9:15 AM 77.5 °F - 70.7 °F 79% 30.05 in 10.0 mi Calm Calm - N/A   Mostly Cloudy
9:35 AM 78.3 °F - 70.7 °F 77% 30.04 in 10.0 mi SW 3.5 mph - N/A   Scattered Clouds
9:55 AM 80.4 °F 84.2 °F 71.6 °F 74% 30.05 in 10.0 mi SW 3.5 mph - N/A   Scattered Clouds
10:15 AM 80.6 °F 84.1 °F 70.5 °F 71% 30.05 in 10.0 mi SSW 4.6 mph - N/A   Scattered Clouds
10:35 AM 83.1 °F 86.3 °F 68.4 °F 61% 30.05 in 10.0 mi SW 5.8 mph - N/A   Scattered Clouds
10:55 AM 82.2 °F 86.2 °F 70.3 °F 67% 30.05 in 10.0 mi West 4.6 mph - N/A   Scattered Clouds
11:15 AM 82.6 °F 86.4 °F 69.6 °F 65% 30.05 in 10.0 mi WNW 5.8 mph - N/A   Mostly Cloudy
11:35 AM 82.9 °F 87.0 °F 70.0 °F 65% 30.05 in 10.0 mi NW 6.9 mph - N/A   Scattered Clouds
11:55 AM 82.4 °F 85.8 °F 69.3 °F 64% 30.05 in 10.0 mi WNW 5.8 mph - N/A   Scattered Clouds
12:35 PM 81.7 °F 85.1 °F 69.3 °F 66% 30.03 in 10.0 mi NW 4.6 mph - N/A   Clear
12:55 PM 82.2 °F 85.5 °F 68.9 °F 64% 30.02 in 10.0 mi NW 3.5 mph - N/A Rain Light Rain
1:15 PM 85.3 °F 89.8 °F 70.0 °F 60% 30.01 in 10.0 mi West 4.6 mph - N/A   Clear
1:35 PM 82.2 °F 85.3 °F 68.5 °F 63% 30.00 in 10.0 mi Calm Calm - N/A Rain Light Rain
1:55 PM 82.9 °F 87.5 °F 70.9 °F 67% 30.00 in 10.0 mi South 3.5 mph - N/A Thunderstorm Thunderstorm
2:15 PM 84.2 °F 88.1 °F 69.3 °F 61% 29.99 in 10.0 mi SSW 5.8 mph - N/A   Clear
2:35 PM 82.6 °F 86.6 °F 70.0 °F 66% 29.99 in 10.0 mi SSW 4.6 mph - N/A   Clear
2:55 PM 82.0 °F 86.3 °F 70.9 °F 69% 29.98 in 10.0 mi SW 3.5 mph - N/A   Clear
3:15 PM 80.6 °F 83.5 °F 68.5 °F 67% 29.98 in 10.0 mi WSW 4.6 mph - N/A Rain Light Rain
3:35 PM 84.0 °F 87.8 °F 69.3 °F 61% 29.97 in 10.0 mi South 4.6 mph - N/A   Clear
3:55 PM 85.1 °F 88.2 °F 67.6 °F 56% 29.97 in 10.0 mi SW 4.6 mph - N/A   Clear
4:15 PM 84.9 °F 88.5 °F 68.7 °F 58% 29.97 in 10.0 mi West 8.1 mph - N/A   Clear
4:35 PM 85.3 °F 89.1 °F 68.9 °F 58% 29.96 in 10.0 mi West 5.8 mph - N/A   Clear
4:55 PM 85.1 °F 88.2 °F 68.0 °F 56% 29.97 in 10.0 mi WSW 4.6 mph - N/A   Clear
5:15 PM 85.1 °F 88.8 °F 68.7 °F 58% 29.97 in 10.0 mi West 5.8 mph - N/A   Clear
5:35 PM 83.5 °F 86.9 °F 68.5 °F 61% 29.96 in 10.0 mi West 3.5 mph - N/A   Clear
5:55 PM 82.9 °F 86.5 °F 69.1 °F 63% 29.96 in 10.0 mi Calm Calm - N/A   Clear
6:15 PM 82.6 °F 86.4 °F 69.6 °F 65% 29.96 in 10.0 mi Calm Calm - N/A   Clear
6:35 PM 81.3 °F 85.0 °F 70.2 °F 69% 29.95 in 10.0 mi Calm Calm - N/A   Clear
6:55 PM 80.2 °F 83.5 °F 70.0 °F 71% 29.94 in 10.0 mi Calm Calm - N/A   Clear
7:15 PM 79.3 °F - 70.0 °F 73% 29.92 in 10.0 mi Calm Calm - N/A   Scattered Clouds
7:35 PM 77.2 °F - 71.1 °F 81% 29.92 in 10.0 mi Calm Calm - N/A Rain Light Rain
7:55 PM 77.0 °F - 71.6 °F 83% 29.93 in 10.0 mi Calm Calm - N/A   Clear
8:15 PM 75.6 °F - 71.6 °F 87% 29.96 in 10.0 mi West 4.6 mph - N/A   Clear
8:35 PM 75.6 °F - 72.0 °F 89% 29.97 in 10.0 mi WSW 8.1 mph - N/A   Mostly Cloudy
8:55 PM 74.3 °F - 70.7 °F 88% 29.99 in 10.0 mi WSW 3.5 mph - N/A   Mostly Cloudy
9:15 PM 73.4 °F - 70.2 °F 90% 30.00 in 10.0 mi West 5.8 mph - N/A   Mostly Cloudy
9:35 PM 72.9 °F - 68.9 °F 87% 30.00 in 10.0 mi WSW 4.6 mph - N/A   Mostly Cloudy
9:55 PM 72.5 °F - 68.0 °F 86% 30.00 in 10.0 mi WSW 4.6 mph - N/A Thunderstorm Scattered Clouds
10:35 PM 70.3 °F - 67.1 °F 89% 30.00 in 10.0 mi WSW 3.5 mph - N/A   Scattered Clouds
11:15 PM 70.7 °F - 67.5 °F 89% 30.00 in 10.0 mi WSW 4.6 mph - N/A   Mostly Cloudy
11:35 PM 70.2 °F - 67.5 °F 91% 30.00 in 10.0 mi Calm Calm - N/A   Scattered Clouds
11:55 PM 69.4 °F - 67.1 °F 92% 29.99 in 10.0 mi Calm Calm - N/A   Scattered Clouds